User: anonymous   Login
Location: Winthrop
(48.4780°N, 120.1850°W)
Time: 01:56:07
(UTC-07:00)
Language:

STARS - Orbit

View from above orbital plane
View from above orbital plane
View from above satellite
View from above satellite

Ground track
Ground track

The orbit data is extracted from the following two-line orbital elements,

1 33498U 09002G   22136.20277169  .00001778  00000-0  24280-3 0  9998
2 33498  98.1727  27.6533 0010867   3.9284 356.2010 14.79889280717083
Epoch (UTC): 16 May 2022 04:51:59
Eccentricity: 0.0010867
inclination: 98.1727°
perigee height: 622 km
apogee height: 637 km
right ascension of ascending node: 27.6533°
argument of perigee: 3.9284°
revolutions per day: 14.79889280
mean anomaly at epoch: 356.2010°
orbit number at epoch: 71708

The dashed part of the orbit path shows where the satellite is in the earth's shadow,  

DLR